Tracking 20719 objects as of 26-May-2020
HD Live streaming from Space Station
objects crossing your sky now

RUBIN 2

Track RUBIN 2 now!
10-day predictions
RUBIN 2 is classified as:


NORAD ID: 27605
Int'l Code: 2002-058A
Perigee: 615.6 km
Apogee: 688.4 km
Inclination: 64.6 °
Period: 97.6 minutes
Semi major axis: 7022 km
RCS: 0.234 m2 (medium)
Launch date: December 20, 2002
Source: Germany (GER)
Launch site: TYURATAM MISSILE AND SPACE COMPLEX (TTMTR)

Uplink (MHz): 435.275
Downlink (MHz): 145.825
Beacon (MHz):
Mode: U/1200 D/9600 MSK
Call sign:
Status: Inactive

aabbcc
Your satellite tracking list
Your tracking list is empty




NASA's NSSDC Master Catalog

Two Line Element Set (TLE):
1 27605U 02058A   20146.35633978 -.00000072 +00000-0 +10316-4 0  9997
2 27605 064.5566 069.7839 0051855 183.3846 176.6913 14.75099933937768
Source of the keplerian elements: AFSPC